Regional Weather Roundup
Issued by NWS

Home | Current Version | Previous Version | Graphics & Text | Print | Product List | Glossary On
Versions: 1 2 3 4 5 6 7 8 9 10 11 12 13 14 15 16 17 18 19 20 21 22 23 24 25 26 27 28 29 30 31 32 33 34 35 36 37 38 39 40 41 42 43 44 45 46 47 48 49 50
000
ASUS43 KMPX 221010
RWRMN
WEATHER ROUNDUP FOR MINNESOTA
NATIONAL WEATHER SERVICE TWIN CITIES/CHANHASSEN MN
500 AM CDT WED MAR 22 2017


NOTE: "FAIR" INDICATES FEW OR NO CLOUDS BELOW 12,000 FEET WITH NO
SIGNIFICANT WEATHER AND/OR OBSTRUCTIONS TO VISIBILITY. N/A MEANS
CURRENT SKY AND/OR WEATHER CONDITIONS ARE NOT AVAILABLE.

MNZ060>063-068>070-221100-
   Twin Cities Metro

CITY           SKY/WX    TMP DP  RH WIND       PRES   REMARKS
TWIN CITIES    CLEAR     23   4  44 E8        30.54S WCI  14
ST PAUL        CLOUDY    23   6  48 E7        30.55F WCI  15
CRYSTAL        PTCLDY    18   5  57 CALM      30.53F
BLAINE         PTCLDY    19  10  68 NE6       30.53F WCI  11
LAKEVILLE      CLEAR     18  10  73 E5        30.52S WCI  11
EDEN PRAIRIE   CLEAR     23   6  48 E8        30.51F WCI  14
SOUTH ST PAUL  CLEAR     22   6  50 E5        30.54S WCI  16
LAKE ELMO      FAIR      19   9  63 NE5       30.55S WCI  13
$$
MNZ001>005-007-008-013>017-022>024-027-028-221100-
   Northwest Minnesota

CITY           SKY/WX    TMP DP  RH WIND       PRES   REMARKS
BEMIDJI        CLOUDY    11   2  67 E6        30.49S WCI   2
HALLOCK        CLEAR     18  12  79 SE7       30.48F WCI   8
ROSEAU         CLOUDY    18   9  68 SE8       30.51S WCI   7
WARROAD        PTCLDY    16   9  73 SE5       30.51S WCI   9
THIEF RVR FALL CLEAR     17   6  62 SE10      30.50S WCI   5
CROOKSTON      CLOUDY    18   9  68 SE9       30.50S WCI   6
FOSSTON        CLOUDY    12   3  67 SE8       30.48S WCI   1
DETROIT LAKES  CLOUDY    18   5  57 SE7       30.48S WCI   8
MOORHEAD       CLOUDY    19   7  58 SE8       30.49F WCI   9
PARK RAPIDS    CLOUDY    15   0  51 SE5       30.47F WCI   8
MAHNOMEN       FAIR      15   3  59 SE7       30.48S WCI   5
$$
MNZ006-009>011-018-025>026-221100-
   North Central Minnesota

CITY           SKY/WX    TMP DP  RH WIND       PRES   REMARKS
BAUDETTE       CLOUDY     9   4  80 E6        30.50F WCI  -1
FLAG ISLAND    PTCLDY    12   1  62 SE3       30.51F
INTL FALLS     CLOUDY     7   2  80 SE5       30.53F WCI  -2
WASKISH        CLOUDY     9   3  78 E6        30.51F WCI  -1
BIG FORK       CLOUDY     3   1  92 CALM      30.51F
LONGVILLE      CLOUDY     9   7  92 CALM      30.50F
GRAND RAPIDS   CLOUDY     8   3  80 CALM      30.53F
CRANE LAKE     PTCLDY     1   0  92 CALM      30.57F
ORR            CLOUDY     3   0  85 CALM      30.51S
COOK           CLOUDY     3   1  92 CALM      30.53F
WALKER         FAIR       9   4  80 CALM      30.49F
$$
MNZ012-019>021-037-221100-
   Northeast Minnesota

CITY           SKY/WX    TMP DP  RH WIND       PRES   REMARKS
DULUTH         CLOUDY    14  -1  51 NE6       30.51F WCI   5
ELY            CLOUDY     3   0  85 CALM      30.53F
HIBBING        CLEAR      4   2  91 CALM      30.52F
EVELETH        CLOUDY     6   1  81 NE3       30.54S
DULUTH HARBOR  CLOUDY    23  12  63 NE15      30.58S WCI  10
TWO HARBORS    CLEAR     14   1  57 N3        30.54S
SILVER BAY     CLOUDY     7   1  78 CALM      30.54F
GRAND MARAIS     N/A     11   2  67 CALM      30.62S
G MARAIS ARPRT CLEAR      0  -8  71 NW3       30.50S
$$
MNZ029>031-032-039>041-046>048-054>057-064-221100-
   West Central Minnesota

CITY           SKY/WX    TMP DP  RH WIND       PRES   REMARKS
FERGUS FALLS   CLOUDY    18   3  53 SE8       30.52F WCI   7
WHEATON        CLOUDY    18  10  73 SE9       30.49F WCI   6
MORRIS         CLOUDY    18  10  73 E9        30.47F WCI   6
ALEXANDRIA     CLOUDY    16   5  62 E8        30.48F WCI   5
ELBOW LAKE     FAIR      17   8  67 SE10      30.47F WCI   4
WADENA         CLOUDY    12   3  67 E3        30.48S
GLENWOOD       CLOUDY    16   9  73 E6        30.49S WCI   7
APPLETON       CLOUDY    21  12  68 CALM      30.49F
BENSON         CLOUDY    19   7  58 SE6       30.51R WCI  11
ORTONVILLE     CLOUDY    19  12  73 SE7       30.47F WCI  10
MADISON        CLOUDY    21  16  79 SE8       30.48F WCI  12
WILLMAR        FAIR      21  10  63 E8        30.51S WCI  12
$$
MNZ033>034-036-042>043-049>051-058-059-221100-
   Central Minnesota

CITY           SKY/WX    TMP DP  RH WIND       PRES   REMARKS
ST CLOUD       CLOUDY    19   6  57 E5        30.52F WCI  12
SAUK CENTRE    FAIR      17   7  64 E5        30.50S WCI  10
PAYNESVILLE      N/A     20   7  57 E7        30.51S WCI  11
AITKIN         CLOUDY    10   5  79 CALM      30.51F
PINE RIVER     CLOUDY    12   5  73 E5        30.52F WCI   4
BRAINERD       CLOUDY     9   6  88 CALM      30.51F
STAPLES        CLOUDY    12   3  67 CALM      30.49F
LONG PRAIRIE   FAIR      18   5  57 NE5       30.50S WCI  11
LITTLE FALLS   CLOUDY    18   5  57 CALM      30.52S
LITCHFIELD     CLOUDY    19  10  68 E5        30.51S WCI  13
BUFFALO        CLOUDY    19   8  62 NE6       30.53F WCI  11
MAPLE LAKE     CLOUDY    21  10  62 E6        30.53S WCI  13
HUTCHINSON     CLOUDY    21  10  61 E7        30.51F WCI  13
$$
MNZ037-044-045-052-053-221100-
   East Central Minnesota

CITY           SKY/WX    TMP DP  RH WIND       PRES   REMARKS
PRINCETON      PTCLDY    18   5  57 CALM      30.53S
MORA           PTCLDY    18   5  57 CALM      30.55F
CAMBRIDGE      PTCLDY    19   7  58 CALM      30.53S
RUSH CITY      PTCLDY    17   5  59 NE6       30.55S WCI   8
MOOSE LAKE     CLOUDY    10   7  85 CALM      30.53S
HINCKLEY       FAIR      18   7  62 CALM      30.55S
CLOQUET        PTCLDY    16  -2  45 E3        30.52F
MCGREGOR       PTCLDY    10   9  92 CALM      30.53F
$$
MNZ071>073-080-081-089-090-097-098-221100-
   Southwest Minnesota

CITY           SKY/WX    TMP DP  RH WIND       PRES   REMARKS
MONTEVIDEO     CLOUDY    18  12  79 SE7       30.51S WCI   8
GRANITE FALLS  CLOUDY    21  13  70 E5        30.51F WCI  15
CANBY          PTCLDY    22  16  78 CALM      30.48F
MARSHALL       CLOUDY    20  13  74 SE7       30.48F WCI  11
REDWOOD FALLS  CLOUDY    22   8  55 E7        30.50F WCI  13
OLIVIA         CLOUDY    21  12  68 E6        30.49F WCI  14
PIPESTONE      CLOUDY    25  10  54 SE9       30.42F WCI  15
WINDOM         CLOUDY    19  14  79 E6        30.47F WCI  11
WORTHINGTON    CLEAR     22  15  75 E9        30.45F WCI  12
JACKSON        CLOUDY    23  16  74 E8        30.46F WCI  14
TRACY          CLOUDY    22  15  74 SE6       30.47F WCI  14
SLAYTON        CLOUDY    21  15  75 E10       30.45S WCI  10
$$
MNZ065>067-074>077-082>085-091>093-221100-
   South Central Minnesota

CITY           SKY/WX    TMP DP  RH WIND       PRES   REMARKS
NEW ULM        PTCLDY    19   9  63 E6        30.51S WCI  11
ST JAMES       CLOUDY    21  16  79 CALM      30.52R
FAIRMONT       CLOUDY    22  16  78 E3        30.50S
GLENCOE        CLOUDY    20  13  74 CALM      30.50F
FARIBAULT      CLEAR     19  12  73 NE3       30.51S
OWATONNA       CLEAR     19  10  68 E7        30.49S WCI  10
WASECA         CLEAR     23  12  63 E6        30.51S WCI  16
ALBERT LEA     CLEAR     19  12  73 E5        30.48F WCI  13
$$
MNZ078>079-086>088-094>096-221100-
   Southeast Minnesota

CITY           SKY/WX    TMP DP  RH WIND       PRES   REMARKS
ROCHESTER      CLEAR     20  11  68 E8        30.49F WCI  10
RED WING       PTCLDY    21   7  53 E5        30.54S WCI  15
STANTON        PTCLDY    22  14  72 E3        30.51S
DODGE CENTER   CLEAR     21  12  68 E9        30.48F WCI  11
WINONA         CLEAR     25   9  50 E6        30.56R WCI  18
AUSTIN         CLEAR     21  12  68 E5        30.48S WCI  15
PRESTON        CLEAR     21  10  61 E7        30.50S WCI  13
$$
ABBREVIATIONS USED IN REMARKS
   TC - TEMPERATURES IN CELSIUS
  WCI - WIND CHILL INDEX
   HX - HEAT INDEX
  VSB - VISIBILITY
$$




USA.gov is the U.S. government's official web portal to all federal, state and local government web resources and services.